Time,TemperatureF,DewpointF,PressureIn,WindDirection,WindDirectionDegrees,WindSpeedMPH,WindSpeedGustMPH,Humidity,HourlyPrecipIn,Conditions,Clouds,dailyrainin,SoftwareType,DateUTC
2013-05-04 00:00:00,44.9,33.1,30.32,NW,315,0.0,0.0,63,0.00,,,0.00,VWS V14.01,2013-05-04 06:00:00,
2013-05-04 00:30:00,43.9,32.5,30.32,NW,315,0.0,0.0,64,0.00,,,0.00,VWS V14.01,2013-05-04 06:30:00,
2013-05-04 01:00:00,43.5,32.2,30.33,NW,315,0.0,0.0,64,0.00,,,0.00,VWS V14.01,2013-05-04 07:00:00,
2013-05-04 01:30:00,42.2,32.0,30.31,NW,315,0.0,0.0,67,0.00,,,0.00,VWS V14.01,2013-05-04 07:30:00,
2013-05-04 02:00:00,40.3,31.0,30.32,NW,315,0.0,0.0,69,0.00,,,0.00,VWS V14.01,2013-05-04 08:00:00,
2013-05-04 02:30:00,38.6,29.7,30.33,NW,315,0.0,0.0,70,0.00,,,0.00,VWS V14.01,2013-05-04 08:30:00,
2013-05-04 03:00:00,38.6,28.6,30.33,NW,315,0.0,0.0,67,0.00,,,0.00,VWS V14.01,2013-05-04 09:00:00,
2013-05-04 03:30:00,37.3,28.8,30.36,NW,315,0.0,0.0,71,0.00,,,0.00,VWS V14.01,2013-05-04 09:30:00,
2013-05-04 04:00:00,36.8,29.0,30.36,NW,315,0.0,0.0,73,0.00,,,0.00,VWS V14.01,2013-05-04 10:00:00,
2013-05-04 04:30:00,36.3,28.8,30.37,NW,315,0.0,0.0,74,0.00,,,0.00,VWS V14.01,2013-05-04 10:30:00,
2013-05-04 05:00:00,35.9,28.8,30.37,NW,315,0.0,0.0,75,0.00,,,0.00,VWS V14.01,2013-05-04 11:00:00,
2013-05-04 05:30:00,35.5,28.7,30.38,NW,315,0.0,0.0,76,0.00,,,0.00,VWS V14.01,2013-05-04 11:30:00,
2013-05-04 06:00:00,35.3,28.8,30.38,NW,315,0.0,0.0,77,0.00,,,0.00,VWS V14.01,2013-05-04 12:00:00,
2013-05-04 06:30:00,34.1,28.0,30.39,NW,315,0.0,0.0,78,0.00,,,0.00,VWS V14.01,2013-05-04 12:30:00,
2013-05-04 07:00:00,32.8,27.3,30.40,NW,315,0.0,0.0,80,0.00,,,0.00,VWS V14.01,2013-05-04 13:00:00,
2013-05-04 07:30:00,33.7,27.6,30.40,NW,315,0.0,0.0,78,0.00,,,0.00,VWS V14.01,2013-05-04 13:30:00,
2013-05-04 08:00:00,35.0,28.2,30.39,NW,315,0.0,0.0,76,0.00,,,0.00,VWS V14.01,2013-05-04 14:00:00,
2013-05-04 08:30:00,37.0,29.2,30.39,NW,315,0.0,0.0,73,0.00,,,0.00,VWS V14.01,2013-05-04 14:30:00,
2013-05-04 09:00:00,38.8,29.2,30.37,NW,315,0.0,0.0,68,0.00,,,0.00,VWS V14.01,2013-05-04 15:00:00,
2013-05-04 09:30:00,41.3,29.7,30.37,NW,315,0.0,0.0,63,0.00,,,0.00,VWS V14.01,2013-05-04 15:30:00,
2013-05-04 10:00:00,43.5,29.7,30.36,NW,315,0.0,4.0,58,0.00,,,0.00,VWS V14.01,2013-05-04 16:00:00,
2013-05-04 10:30:00,46.2,30.5,30.33,NW,315,0.0,0.0,54,0.00,,,0.00,VWS V14.01,2013-05-04 16:30:00,
2013-05-04 11:00:00,48.9,29.6,30.31,NW,315,0.0,0.0,47,0.00,,,0.00,VWS V14.01,2013-05-04 17:00:00,
2013-05-04 11:30:00,51.7,26.9,30.28,NW,315,0.0,0.0,38,0.00,,,0.00,VWS V14.01,2013-05-04 17:30:00,
2013-05-04 12:00:00,54.7,27.6,30.25,NW,315,0.0,0.0,35,0.00,,,0.00,VWS V14.01,2013-05-04 18:00:00,
2013-05-04 12:30:00,58.4,27.1,30.22,WNW,292,0.0,1.0,30,0.00,,,0.00,VWS V14.01,2013-05-04 18:30:00,
2013-05-04 13:00:00,60.5,27.3,30.20,NW,315,0.0,1.0,28,0.00,,,0.00,VWS V14.01,2013-05-04 19:00:00,
2013-05-04 13:30:00,64.2,26.7,30.19,NW,315,0.0,0.0,24,0.00,,,0.00,VWS V14.01,2013-05-04 19:30:00,
2013-05-04 14:00:00,64.8,26.2,30.17,NW,315,0.0,0.0,23,0.00,,,0.00,VWS V14.01,2013-05-04 20:00:00,
2013-05-04 14:30:00,66.0,26.1,30.16,NW,315,0.0,0.0,22,0.00,,,0.00,VWS V14.01,2013-05-04 20:30:00,
2013-05-04 15:00:00,64.7,23.9,30.15,NW,315,0.0,0.0,21,0.00,,,0.00,VWS V14.01,2013-05-04 21:00:00,
2013-05-04 15:30:00,66.1,22.7,30.15,ESE,112,0.0,2.0,19,0.00,,,0.00,VWS V14.01,2013-05-04 21:30:00,
2013-05-04 16:00:00,66.8,23.2,30.14,NW,315,0.0,2.0,19,0.00,,,0.00,VWS V14.01,2013-05-04 22:00:00,
2013-05-04 16:30:00,66.6,20.5,30.14,NW,315,0.0,1.0,17,0.00,,,0.00,VWS V14.01,2013-05-04 22:30:00,
2013-05-04 17:00:00,67.9,21.5,30.12,NW,315,0.0,0.0,17,0.00,,,0.00,VWS V14.01,2013-05-04 23:00:00,
2013-05-04 17:30:00,68.4,21.9,30.11,ESE,112,0.0,2.0,17,0.00,,,0.00,VWS V14.01,2013-05-04 23:30:00,
2013-05-04 18:00:00,67.3,21.0,30.11,SE,135,0.0,2.0,17,0.00,,,0.00,VWS V14.01,2013-05-05 00:00:00,
2013-05-04 18:30:00,66.9,20.7,30.12,ESE,112,0.0,1.0,17,0.00,,,0.00,VWS V14.01,2013-05-05 00:30:00,
2013-05-04 19:00:00,66.0,21.3,30.12,ESE,112,0.0,1.0,18,0.00,,,0.00,VWS V14.01,2013-05-05 01:00:00,
2013-05-04 19:30:00,63.9,20.9,30.11,SE,135,0.0,1.0,19,0.00,,,0.00,VWS V14.01,2013-05-05 01:30:00,
2013-05-04 20:00:00,61.2,21.0,30.12,SE,135,0.0,0.0,21,0.00,,,0.00,VWS V14.01,2013-05-05 02:00:00,
2013-05-04 20:30:00,59.3,22.5,30.11,ESE,112,0.0,3.0,24,0.00,,,0.00,VWS V14.01,2013-05-05 02:30:00,
2013-05-04 21:00:00,57.0,20.6,30.12,ESE,112,0.0,0.0,24,0.00,,,0.00,VWS V14.01,2013-05-05 03:00:00,
2013-05-04 21:30:00,55.7,21.4,30.11,ESE,112,0.0,0.0,26,0.00,,,0.00,VWS V14.01,2013-05-05 03:30:00,
2013-05-04 22:00:00,51.4,27.3,30.13,ESE,112,0.0,0.0,39,0.00,,,0.00,VWS V14.01,2013-05-05 04:00:00,
2013-05-04 22:30:00,49.9,28.3,30.12,ESE,112,0.0,0.0,43,0.00,,,0.00,VWS V14.01,2013-05-05 04:30:00,
2013-05-04 23:00:00,48.3,28.5,30.13,ESE,112,0.0,0.0,46,0.00,,,0.00,VWS V14.01,2013-05-05 05:00:00,
2013-05-04 23:30:00,45.7,28.1,30.12,ESE,112,0.0,0.0,50,0.00,,,0.00,VWS V14.01,2013-05-05 05:30:00,